Theta_e
320 320 318 317 314 312 310 309 309 308 307 307 306 308 309 311 315 314 316 316 322 321 321 321 320 320 319 319 318 318 317 316 315 314 314 313 313 313 313 313 312 312 312
319 318 315 313 310 310 309 308 308 306 304 305 303 302 303 306 308 311 309 312 317 321 320 319 319 319 319 318 318 317 316 314 313 312 312 311 311 311 311 311 311 310 310
319 316 314 311 309 307 305 304 302 301 301 299 300 299 299 298 303 304 305 304 308 312 319 319 318 318 318 317 317 316 315 313 312 311 311 310 310 310 309 309 309 308 308
319 315 312 310 306 305 303 302 301 299 298 299 295 295 297 297 299 298 300 300 301 304 310 314 316 316 316 317 317 315 314 313 312 310 310 309 309 308 308 308 307 307 307
317 315 313 309 305 303 301 300 299 299 298 297 294 292 293 295 292 297 297 296 296 299 301 302 305 310 315 316 316 315 314 312 310 309 308 307 307 307 306 306 305 305 305
317 315 313 308 304 301 299 298 296 296 297 294 293 289 293 292 290 291 295 294 293 295 296 300 303 306 309 315 315 315 314 311 309 308 307 306 306 305 304 304 304 304 304
318 315 313 308 304 301 300 297 295 294 291 292 292 292 290 292 291 289 291 293 291 291 293 294 298 301 304 309 314 314 314 312 309 307 306 306 304 304 303 303 302 302 302
319 319 314 310 306 305 300 298 294 293 292 294 296 293 291 293 290 290 290 289 289 289 290 291 294 293 297 302 305 312 312 311 309 307 306 304 304 303 302 301 301 300 300
320 318 317 314 309 305 299 298 297 296 290 291 292 296 286 294 287 288 288 289 286 288 289 289 289 290 291 294 299 307 310 309 307 307 305 304 303 302 301 300 299 299 299
321 319 318 314 308 308 305 301 298 299 296 291 291 290 291 291 291 289 286 287 287 286 288 288 287 288 288 290 294 298 304 307 305 304 304 303 302 301 300 299 298 298 298
322 320 318 315 311 308 306 303 299 298 297 298 294 289 289 287 287 290 293 284 284 285 285 288 287 287 287 288 289 294 301 303 303 302 301 301 300 299 299 298 297 297 296
312 315 317 315 313 310 307 303 301 298 298 299 296 291 290 288 286 285 287 285 284 284 284 284 285 286 287 287 289 291 299 301 301 300 299 298 297 297 297 297 297 296 295
306 309 310 311 310 309 308 304 300 298 298 297 295 294 293 292 289 289 287 284 285 283 282 285 284 285 285 287 287 290 294 299 300 298 297 296 296 295 295 296 295 295 294
308 307 306 306 306 307 306 305 301 299 298 296 297 295 295 293 290 288 287 286 283 282 281 283 284 283 284 285 287 289 290 297 298 298 297 295 295 295 294 294 295 294 293
301 303 304 303 303 302 302 301 300 297 296 295 295 295 294 294 291 291 290 289 290 289 283 283 281 283 284 284 285 288 288 292 296 297 296 295 294 294 294 294 294 294 293
299 298 300 300 299 299 299 299 297 295 294 295 294 294 293 294 292 291 290 289 290 290 288 286 282 282 283 283 284 286 287 287 293 294 295 294 294 293 293 293 293 293 293
296 295 294 295 296 296 295 296 295 293 293 293 293 292 292 292 292 290 289 288 287 288 287 289 282 282 281 281 282 284 285 286 288 291 292 293 293 292 292 292 292 292 291
293 293 292 291 292 292 293 292 292 293 291 291 291 291 291 291 290 290 288 287 287 287 287 286 280 279 280 281 281 282 283 284 284 286 290 291 292 292 291 292 292 291 290
292 291 290 290 290 289 290 291 292 290 290 290 290 289 290 289 288 289 288 287 286 286 286 286 283 280 280 280 280 281 282 283 283 284 288 289 290 290 291 291 291 291 290
291 290 290 289 288 289 288 288 288 289 289 289 289 289 289 288 288 288 287 286 286 285 284 284 282 278 279 279 280 279 279 280 280 281 283 285 287 288 289 290 290 289 290
290 289 288 288 287 286 286 287 287 288 288 287 287 287 288 288 288 289 287 286 286 284 283 283 283 278 278 277 277 279 279 279 280 280 279 280 282 283 284 287 287 287 289
287 284 284 284 284 284 283 288 288 285 286 286 286 286 286 286 286 289 290 290 288 285 284 283 283 280 280 279 279 279 279 277 275 280 278 278 280 280 280 281 284 286 287
282 282 282 282 283 283 286 288 288 285 285 285 285 284 284 284 284 284 286 289 289 290 289 285 283 282 281 281 280 278 278 278 278 279 279 277 280 279 280 279 284 285 286
280 281 281 281 281 282 285 287 287 285 285 285 284 284 283 283 282 282 283 283 285 285 286 286 285 285 283 282 281 281 280 280 278 278 280 277 277 277 278 278 282 284 285
278 279 279 279 278 280 283 286 286 283 283 284 283 284 283 282 283 284 283 282 283 284 287 288 285 286 285 284 282 281 278 277 276 276 276 277 275 275 274 275 276 282 284
278 278 279 278 276 277 281 284 285 283 282 282 281 281 282 282 283 284 283 282 281 282 282 283 284 285 286 285 284 281 280 277 277 274 275 275 273 274 274 274 273 273 274
Wind_Speed
6 5 5 5 5 5 6 6 6 6 7 7 6 6 6 6 7 5 4 11 8 11 11 12 11 11 12 13 12 13 14 14 14 12 15 14 15 16 17 17 18 18 18
7 6 6 5 5 5 5 6 6 7 6 6 7 6 6 6 6 6 4 6 13 8 10 10 11 10 11 11 12 13 13 12 13 12 13 13 14 15 15 16 16 16 17
9 8 6 5 5 5 7 7 6 6 6 5 7 6 5 5 5 6 4 4 5 13 5 9 10 10 10 11 11 12 12 11 11 11 12 12 12 13 14 14 14 14 15
11 8 6 6 6 6 6 6 6 5 5 4 4 3 4 3 4 4 3 3 3 3 8 7 6 8 10 10 12 12 11 11 11 10 10 11 12 11 12 12 12 12 12
10 8 7 7 9 6 6 6 5 5 6 5 5 3 2 3 2 2 3 3 3 3 1 4 6 5 9 12 12 13 12 11 11 10 9 9 9 10 9 9 9 10 10
12 9 8 9 8 7 6 5 6 5 6 6 6 3 2 1 1 1 2 1 1 2 1 1 2 1 4 12 13 14 14 12 11 10 9 8 8 8 8 7 7 8 8
12 11 7 9 9 10 10 11 6 7 3 6 5 2 2 4 4 4 3 3 3 2 2 2 1 2 2 7 14 15 15 15 12 10 8 9 7 7 6 6 5 6 6
12 12 12 11 11 9 10 12 9 6 4 10 5 3 3 4 8 8 5 5 6 3 3 3 3 2 3 3 5 15 16 15 14 12 11 8 8 6 5 4 3 3 4
15 15 14 11 12 10 11 14 13 13 7 8 7 5 3 7 1 3 10 8 6 5 5 4 4 3 2 3 5 8 15 16 15 13 11 9 7 7 6 4 2 1 2
14 14 15 14 14 12 12 12 11 11 8 8 3 7 1 3 5 3 4 7 8 9 8 6 4 4 4 3 5 4 9 14 15 13 12 11 9 8 6 5 3 2 0
12 13 13 13 12 11 12 12 12 13 8 5 3 4 4 1 2 2 3 4 5 8 7 8 6 5 4 3 3 4 10 16 16 14 13 11 10 9 7 5 4 3 2
4 7 10 10 10 10 11 11 12 12 11 9 9 4 4 6 7 4 4 3 4 4 7 7 7 6 6 5 7 10 13 16 17 15 13 12 11 10 9 7 6 4 3
3 6 5 6 6 7 8 8 10 11 12 11 9 8 5 4 1 3 2 1 3 1 3 7 8 8 7 8 8 12 12 18 18 17 16 14 14 13 12 10 7 7 6
3 3 5 4 5 5 6 8 7 8 9 10 12 9 7 7 5 4 5 5 3 4 5 7 7 10 10 9 11 16 9 18 20 19 19 18 17 16 14 12 11 8 7
3 4 4 4 4 5 5 7 6 8 9 10 10 10 10 7 7 8 7 7 8 6 6 7 6 11 10 10 13 12 10 14 21 21 22 21 19 17 14 14 13 11 7
3 3 3 4 4 4 5 6 5 5 7 6 7 9 8 8 6 7 8 7 8 10 8 5 7 4 9 8 12 13 12 15 21 21 22 21 20 18 17 16 14 12 11
3 3 3 3 3 4 4 4 5 5 8 8 8 9 11 10 8 6 6 6 8 8 12 5 3 4 9 11 10 10 12 13 12 24 23 22 21 19 18 16 16 14 9
3 4 4 4 4 4 4 5 5 4 6 7 8 7 9 6 9 7 7 10 9 9 9 13 4 5 6 12 11 12 11 10 10 19 24 23 21 21 19 17 16 16 11
3 3 3 3 4 5 5 6 5 5 6 7 7 8 9 8 8 6 7 7 8 7 8 8 3 2 2 6 7 6 9 9 9 17 24 23 21 20 19 18 17 15 14
4 4 4 4 5 4 5 4 4 5 6 6 6 7 7 7 9 7 7 9 7 7 7 8 5 4 3 4 6 8 7 8 10 8 14 12 17 20 20 18 17 15 19
4 4 4 3 4 4 3 4 5 5 6 5 6 7 7 7 11 10 6 8 8 8 7 8 8 4 4 4 11 6 8 8 9 7 8 8 7 8 8 17 12 17 21
3 2 3 3 4 2 5 8 6 5 5 5 6 6 6 7 9 15 17 17 11 9 10 8 8 7 10 6 8 8 8 6 6 8 7 9 8 8 7 5 15 19 21
1 2 3 3 4 4 9 9 9 4 5 5 6 5 4 5 7 7 12 17 18 19 18 9 10 10 8 10 10 10 10 9 6 4 11 8 7 8 6 8 21 21 25
2 3 3 4 4 5 8 9 9 4 5 7 8 8 8 6 6 6 6 7 9 9 10 8 10 7 8 8 12 10 9 5 3 4 5 6 4 6 4 6 17 20 21
2 2 3 3 4 5 7 9 8 4 4 6 5 5 5 5 7 10 7 8 8 8 7 11 9 10 11 13 10 6 7 7 4 4 6 3 2 3 3 6 6 16 17
3 3 4 3 4 6 6 8 6 3 4 4 4 4 8 6 11 13 8 7 8 6 6 4 5 8 9 10 17 10 8 9 4 4 5 6 4 3 3 1 2 2 3
Wind_Direction
157 149 142 140 131 133 130 121 115 105 96 91 80 86 82 81 96 96 67 23 101 112 114 114 111 110 108 104 106 106 102 99 97 102 96 90 91 88 85 83 80 75 72
163 158 152 144 138 140 135 130 128 121 108 101 85 70 69 63 62 78 80 49 35 113 121 120 118 120 122 119 119 117 113 120 103 107 105 100 93 88 85 82 80 76 73
171 162 159 159 150 134 122 116 106 103 107 102 99 88 68 52 57 49 46 70 41 30 107 130 134 136 135 133 133 125 122 118 117 114 108 107 102 95 90 85 80 78 73
172 161 160 164 153 149 142 136 131 115 113 116 102 78 91 68 70 57 50 55 76 52 47 41 146 154 153 149 146 139 132 130 125 123 119 112 107 107 100 93 86 82 76
176 168 169 158 156 152 153 148 147 143 151 138 122 100 70 86 71 103 78 17 16 90 95 34 24 23 180 170 164 150 149 145 144 146 129 129 121 112 110 101 92 84 73
180 174 171 160 158 155 156 158 155 154 157 154 141 117 144 140 322 190 173 259 3 355 48 57 338 3 314 188 176 168 163 159 156 152 158 144 134 130 119 103 90 77 70
183 181 176 166 170 178 176 162 148 158 155 155 127 125 261 252 232 230 214 219 205 215 249 161 213 255 258 253 192 182 174 172 173 165 162 163 150 144 129 115 101 85 74
188 191 183 184 184 179 177 180 168 158 160 187 159 123 204 226 232 219 214 217 220 200 236 243 217 226 274 271 272 197 187 180 178 174 173 175 173 156 146 128 107 80 61
194 195 196 189 186 188 186 187 187 186 174 194 202 149 131 224 142 175 225 222 219 209 216 212 222 226 219 279 278 227 197 185 181 182 190 181 178 173 167 157 149 99 59
199 201 199 192 191 194 199 198 193 201 171 182 197 240 181 152 190 216 223 227 227 226 220 218 204 215 213 206 262 233 168 182 180 187 194 191 185 190 187 186 179 195 170
209 204 201 197 195 199 206 197 192 202 206 174 225 140 192 197 272 227 223 207 220 229 222 214 204 205 203 216 225 254 172 183 175 179 183 185 190 195 198 201 208 221 240
183 196 197 202 203 208 204 205 200 199 194 210 197 226 195 168 183 187 227 205 217 197 217 213 210 207 194 205 210 216 206 189 173 172 184 190 196 203 208 207 214 221 234
188 202 192 191 195 194 193 189 196 198 202 210 200 204 212 234 107 163 191 132 250 222 196 221 216 201 202 200 210 210 226 204 194 187 193 200 204 208 210 212 211 224 232
176 158 172 181 196 188 190 189 193 202 204 208 214 214 212 216 176 166 169 160 239 227 223 231 212 207 200 204 206 206 218 216 209 201 202 206 209 209 211 213 219 225 235
140 198 166 200 201 202 196 185 193 197 195 203 212 211 214 215 200 202 200 198 221 252 228 211 209 205 204 199 200 194 204 216 214 211 210 209 213 215 213 217 219 228 236
153 161 182 198 200 207 202 197 196 195 193 209 213 215 218 228 214 213 214 217 221 239 262 184 211 174 195 200 204 195 200 205 212 216 221 214 215 214 219 220 223 226 241
183 195 207 215 218 209 217 215 207 191 205 209 207 208 218 218 218 205 208 210 217 221 249 240 179 173 185 197 197 188 198 206 211 215 220 221 218 218 220 223 227 231 247
174 218 190 204 216 225 222 211 215 217 216 224 221 220 225 218 222 206 205 217 221 219 232 251 171 185 192 198 192 188 204 203 202 212 218 224 220 223 222 222 228 237 235
193 197 202 232 233 221 222 225 221 217 218 219 215 219 227 211 226 221 214 218 222 226 227 248 239 188 187 187 181 195 206 220 220 212 215 219 223 226 224 225 230 241 251
217 198 208 206 223 222 227 231 223 229 223 218 225 227 233 219 230 217 213 218 217 217 214 228 205 180 184 177 193 192 196 202 206 200 213 218 224 225 229 229 235 248 244
251 249 214 210 242 233 226 217 223 235 231 232 231 234 236 227 227 222 214 220 212 215 214 219 221 184 179 170 194 184 202 197 214 199 205 209 211 220 223 238 238 248 246
239 204 235 239 247 246 253 251 238 227 228 233 251 244 233 233 241 245 244 238 219 219 225 220 227 217 211 195 181 187 184 179 205 194 205 222 202 215 218 218 236 240 248
212 241 240 237 251 247 250 249 244 218 221 229 243 253 249 232 239 246 255 255 247 238 232 220 229 215 207 197 180 180 191 195 204 155 189 216 199 227 231 237 241 242 243
314 288 276 261 262 263 268 260 252 233 230 232 226 219 226 232 223 232 239 242 246 235 236 230 225 227 219 188 189 189 186 170 88 137 180 208 175 220 211 237 245 242 240
291 264 258 260 259 279 282 266 259 242 245 255 254 246 253 260 251 259 246 250 254 238 229 210 208 220 205 188 171 148 168 169 196 191 195 168 172 205 211 235 230 239 242
267 291 290 255 255 270 280 272 270 238 246 251 238 245 241 236 255 254 250 232 240 226 205 223 210 216 217 199 187 187 168 191 185 198 184 178 163 179 250 195 272 239 258